CFG1AY EGKK-EDDF

Flight info

Callsign CFG1AY
Flight time 0h 53m
Altitude 33000
Route ODVIK Y311 DVR UL9 KONAN UL607 SPI T180 NIVNU T847 IMCOM IMCOM1A
Aircraft A320/M-SDE3FGHIRWY/LB1

Departure

Time 2026-04-14 08:54
Airport London Gatwick Airport (EGKK)

Arrival

Time 2026-04-14 09:48
Airport Frankfurt Main Airport (EDDF)
Time Latitude Longitude Altitude Speed Heading
2026-04-14 08:03 51.15809 -0.17753 213 ft 0 kts 349°
2026-04-14 08:44 51.15807 -0.17753 205 ft 1 kts 348°
2026-04-14 08:44 51.15791 -0.17747 214 ft 3 kts 342°
2026-04-14 08:45 51.15772 -0.17735 217 ft 3 kts 332°
2026-04-14 08:45 51.15755 -0.17718 214 ft 3 kts 315°
2026-04-14 08:45 51.15744 -0.17695 217 ft 3 kts 280°
2026-04-14 08:45 51.15742 -0.17681 217 ft 0 kts 259°
2026-04-14 08:48 51.15742 -0.17692 217 ft 6 kts 263°
2026-04-14 08:48 51.15713 -0.17865 209 ft 21 kts 254°
2026-04-14 08:48 51.15680 -0.18099 207 ft 22 kts 257°
2026-04-14 08:49 51.15652 -0.18301 207 ft 19 kts 258°
2026-04-14 08:49 51.15588 -0.18346 208 ft 10 kts 160°
2026-04-14 08:49 51.15480 -0.18312 208 ft 19 kts 168°
2026-04-14 08:49 51.15346 -0.18265 208 ft 20 kts 167°
2026-04-14 08:50 51.15207 -0.18237 208 ft 19 kts 207°
2026-04-14 08:50 51.15170 -0.18444 212 ft 22 kts 258°
2026-04-14 08:50 51.15135 -0.18691 205 ft 24 kts 257°
2026-04-14 08:50 51.15099 -0.18956 209 ft 25 kts 257°
2026-04-14 08:51 51.15061 -0.19236 205 ft 26 kts 258°
2026-04-14 08:51 51.15022 -0.19527 208 ft 27 kts 257°
2026-04-14 08:51 51.14979 -0.19828 207 ft 28 kts 258°
2026-04-14 08:51 51.14935 -0.20143 207 ft 30 kts 257°
2026-04-14 08:52 51.14891 -0.20469 206 ft 31 kts 258°
2026-04-14 08:52 51.14848 -0.20767 207 ft 28 kts 257°
2026-04-14 08:52 51.14805 -0.21074 205 ft 29 kts 256°
2026-04-14 08:52 51.14756 -0.21368 208 ft 22 kts 250°
2026-04-14 08:53 51.14696 -0.21395 211 ft 8 kts 152°
2026-04-14 08:53 51.14606 -0.21328 205 ft 20 kts 163°
2026-04-14 08:53 51.14525 -0.21118 217 ft 35 kts 83°
2026-04-14 08:53 51.14631 -0.20359 211 ft 104 kts 77°
2026-04-14 08:54 51.14825 -0.18930 211 ft 158 kts 78°
2026-04-14 08:54 51.15101 -0.17060 497 ft 179 kts 81°
2026-04-14 08:54 51.15356 -0.15109 1270 ft 182 kts 82°
2026-04-14 08:54 51.15617 -0.13155 2076 ft 181 kts 83°
2026-04-14 08:55 51.15893 -0.11095 2472 ft 201 kts 83°
2026-04-14 08:55 51.16201 -0.08792 2847 ft 226 kts 82°
2026-04-14 08:55 51.16547 -0.06238 3324 ft 250 kts 82°
2026-04-14 08:55 51.16865 -0.03423 3922 ft 263 kts 91°
2026-04-14 08:56 51.16836 -0.00485 4860 ft 268 kts 95°
2026-04-14 08:56 51.16783 0.02515 5746 ft 274 kts 95°
2026-04-14 08:56 51.16724 0.05576 6643 ft 279 kts 94°
2026-04-14 08:56 51.16663 0.08689 7445 ft 285 kts 93°
2026-04-14 08:57 51.16604 0.11876 8250 ft 290 kts 92°
2026-04-14 08:57 51.16545 0.15126 8995 ft 296 kts 91°
2026-04-14 08:57 51.16514 0.18435 9805 ft 301 kts 90°
2026-04-14 08:57 51.16523 0.21791 10543 ft 306 kts 89°
2026-04-14 08:58 51.16547 0.25200 11314 ft 309 kts 89°
2026-04-14 08:58 51.16569 0.28645 12083 ft 313 kts 89°
2026-04-14 08:58 51.16583 0.32135 12854 ft 317 kts 89°
2026-04-14 08:58 51.16591 0.35663 13624 ft 320 kts 89°
2026-04-14 08:59 51.16596 0.39240 14316 ft 324 kts 89°
2026-04-14 08:59 51.16596 0.42846 14980 ft 327 kts 90°
2026-04-14 08:59 51.16594 0.46495 15633 ft 331 kts 89°
2026-04-14 08:59 51.16593 0.50191 16174 ft 340 kts 89°
2026-04-14 09:00 51.16591 0.54076 16300 ft 361 kts 89°
2026-04-14 09:00 51.16588 0.58189 16443 ft 380 kts 89°
2026-04-14 09:00 51.16585 0.62487 16745 ft 394 kts 89°
2026-04-14 09:00 51.16582 0.66880 17295 ft 399 kts 90°
2026-04-14 09:01 51.16575 0.71333 17899 ft 404 kts 90°
2026-04-14 09:01 51.16565 0.75828 18491 ft 408 kts 90°
2026-04-14 09:01 51.16553 0.80363 19098 ft 411 kts 89°
2026-04-14 09:01 51.16542 0.84941 19628 ft 415 kts 89°
2026-04-14 09:02 51.16528 0.89548 20148 ft 418 kts 89°
2026-04-14 09:02 51.16508 0.94205 20676 ft 422 kts 89°
2026-04-14 09:02 51.16486 0.98898 21201 ft 426 kts 89°
2026-04-14 09:02 51.16464 1.03636 21706 ft 429 kts 88°
2026-04-14 09:03 51.16441 1.08400 22206 ft 432 kts 88°
2026-04-14 09:03 51.16414 1.13213 22687 ft 436 kts 88°
2026-04-14 09:03 51.16385 1.18056 23171 ft 439 kts 88°
2026-04-14 09:03 51.16353 1.22880 23627 ft 442 kts 88°
2026-04-14 09:04 51.16316 1.27790 24015 ft 446 kts 88°
2026-04-14 09:04 51.16279 1.32751 24381 ft 449 kts 88°
2026-04-14 09:04 51.16223 1.37734 24739 ft 452 kts 89°
2026-04-14 09:04 51.16073 1.42760 25093 ft 456 kts 90°
2026-04-14 09:05 51.15838 1.47802 25436 ft 459 kts 91°
2026-04-14 09:05 51.15554 1.52877 25773 ft 462 kts 91°
2026-04-14 09:05 51.15253 1.57998 26105 ft 465 kts 91°
2026-04-14 09:05 51.14958 1.63137 26435 ft 467 kts 91°
2026-04-14 09:06 51.14676 1.68308 26761 ft 470 kts 90°
2026-04-14 09:06 51.14409 1.73503 27076 ft 472 kts 90°
2026-04-14 09:06 51.14152 1.78726 27391 ft 474 kts 90°
2026-04-14 09:06 51.13898 1.83990 27702 ft 477 kts 90°
2026-04-14 09:07 51.13638 1.89266 28003 ft 479 kts 90°
2026-04-14 09:07 51.13367 1.94573 28303 ft 481 kts 90°
2026-04-14 09:07 51.13088 1.99903 28602 ft 484 kts 89°
2026-04-14 09:07 51.12805 2.05242 28868 ft 486 kts 89°
2026-04-14 09:08 51.12520 2.10610 29128 ft 488 kts 89°
2026-04-14 09:08 51.12234 2.15996 29399 ft 490 kts 89°
2026-04-14 09:08 51.11947 2.21346 29667 ft 491 kts 89°
2026-04-14 09:08 51.11655 2.26789 29900 ft 493 kts 89°
2026-04-14 09:09 51.11357 2.32231 30184 ft 494 kts 89°
2026-04-14 09:09 51.11051 2.37666 30483 ft 493 kts 89°
2026-04-14 09:09 51.10740 2.43087 30781 ft 492 kts 90°
2026-04-14 09:09 51.10428 2.48521 31084 ft 491 kts 90°
2026-04-14 09:10 51.10119 2.53926 31387 ft 490 kts 90°
2026-04-14 09:10 51.09811 2.59312 31694 ft 489 kts 90°
2026-04-14 09:10 51.09419 2.64686 31994 ft 491 kts 96°
2026-04-14 09:10 51.08605 2.69998 32300 ft 494 kts 102°
2026-04-14 09:11 51.07654 2.75236 32609 ft 493 kts 102°
2026-04-14 09:11 51.06706 2.80472 32927 ft 492 kts 102°
2026-04-14 09:11 51.05756 2.85697 33230 ft 491 kts 102°
2026-04-14 09:11 51.04807 2.90909 33531 ft 490 kts 102°
2026-04-14 09:12 51.03858 2.96099 33843 ft 489 kts 102°
2026-04-14 09:12 51.02916 3.01229 34122 ft 489 kts 102°
2026-04-14 09:12 51.01011 3.11566 34195 ft 487 kts 102°
2026-04-14 09:13 50.99103 3.21885 34195 ft 487 kts 103°
2026-04-14 09:13 50.97190 3.32191 34195 ft 486 kts 103°
2026-04-14 09:14 50.95265 3.42462 34195 ft 486 kts 103°
2026-04-14 09:14 50.93328 3.52747 34199 ft 485 kts 103°
2026-04-14 09:15 50.91403 3.62920 34203 ft 485 kts 103°
2026-04-14 09:15 50.89460 3.73144 34211 ft 485 kts 103°
2026-04-14 09:16 50.87489 3.83345 34207 ft 484 kts 103°
2026-04-14 09:16 50.85828 3.91869 34206 ft 484 kts 104°
2026-04-14 09:17 50.83832 4.02051 34208 ft 484 kts 104°
2026-04-14 09:17 50.81839 4.12208 34215 ft 484 kts 104°
2026-04-14 09:18 50.79856 4.22285 34213 ft 484 kts 104°
2026-04-14 09:18 50.77844 4.32422 34214 ft 483 kts 104°
2026-04-14 09:19 50.75820 4.42565 34213 ft 483 kts 104°
2026-04-14 09:19 50.73798 4.52683 34217 ft 483 kts 104°
2026-04-14 09:20 50.71768 4.62790 34220 ft 483 kts 104°
2026-04-14 09:20 50.69796 4.72900 34222 ft 482 kts 103°
2026-04-14 09:21 50.67847 4.83029 34225 ft 482 kts 103°
2026-04-14 09:21 50.65884 4.93123 34230 ft 481 kts 104°
2026-04-14 09:22 50.63872 5.03106 34219 ft 481 kts 105°
2026-04-14 09:22 50.61790 5.13122 34233 ft 481 kts 105°
2026-04-14 09:23 50.59699 5.23117 34241 ft 480 kts 105°
2026-04-14 09:23 50.57627 5.33078 34233 ft 479 kts 105°
2026-04-14 09:24 50.55550 5.43040 34231 ft 478 kts 105°
2026-04-14 09:24 50.53457 5.52981 34028 ft 479 kts 105°
2026-04-14 09:25 50.52407 5.57926 33766 ft 473 kts 106°
2026-04-14 09:25 50.51365 5.62823 34175 ft 471 kts 105°
2026-04-14 09:25 50.49443 5.72618 33668 ft 474 kts 103°
2026-04-14 09:26 50.48539 5.77601 33102 ft 474 kts 103°
2026-04-14 09:26 50.47650 5.82578 32537 ft 474 kts 104°
2026-04-14 09:26 50.46754 5.87553 31991 ft 474 kts 104°
2026-04-14 09:26 50.45843 5.92514 31450 ft 474 kts 104°
2026-04-14 09:27 50.44911 5.97483 30927 ft 474 kts 105°
2026-04-14 09:27 50.43966 6.02432 30409 ft 474 kts 105°
2026-04-14 09:27 50.43015 6.07388 29832 ft 474 kts 106°
2026-04-14 09:27 50.42068 6.12317 29227 ft 471 kts 106°
2026-04-14 09:28 50.41131 6.17198 28644 ft 463 kts 106°
2026-04-14 09:28 50.40212 6.21991 28072 ft 456 kts 106°
2026-04-14 09:28 50.39304 6.26727 27504 ft 449 kts 106°
2026-04-14 09:28 50.38411 6.31379 26958 ft 443 kts 106°
2026-04-14 09:29 50.37528 6.35967 26423 ft 437 kts 107°
2026-04-14 09:29 50.36694 6.40517 25890 ft 432 kts 103°
2026-04-14 09:29 50.36198 6.45124 25373 ft 427 kts 95°
2026-04-14 09:29 50.35934 6.49725 24861 ft 422 kts 95°
2026-04-14 09:30 50.35663 6.54278 24360 ft 418 kts 95°
2026-04-14 09:30 50.35378 6.58783 23869 ft 414 kts 96°
2026-04-14 09:30 50.35087 6.63239 23355 ft 409 kts 96°
2026-04-14 09:30 50.34799 6.67605 22842 ft 405 kts 96°
2026-04-14 09:31 50.34514 6.71956 22431 ft 400 kts 96°
2026-04-14 09:31 50.34234 6.76252 22027 ft 394 kts 96°
2026-04-14 09:31 50.33965 6.80491 21630 ft 388 kts 95°
2026-04-14 09:31 50.33597 6.84653 21238 ft 383 kts 102°
2026-04-14 09:32 50.32850 6.88623 20847 ft 378 kts 111°
2026-04-14 09:32 50.31784 6.92357 20467 ft 373 kts 115°
2026-04-14 09:32 50.29612 6.99611 19743 ft 364 kts 115°
2026-04-14 09:33 50.28546 7.03186 19379 ft 360 kts 115°
2026-04-14 09:33 50.27491 7.06726 19018 ft 357 kts 115°
2026-04-14 09:33 50.26456 7.10205 18667 ft 353 kts 114°
2026-04-14 09:33 50.25418 7.13694 18279 ft 350 kts 114°
2026-04-14 09:34 50.24389 7.17125 17871 ft 348 kts 115°
2026-04-14 09:34 50.23363 7.20524 17469 ft 345 kts 115°
2026-04-14 09:34 50.22338 7.23903 17075 ft 343 kts 115°
2026-04-14 09:34 50.21335 7.27216 16689 ft 340 kts 115°
2026-04-14 09:35 50.20331 7.30545 16301 ft 338 kts 115°
2026-04-14 09:35 50.19348 7.33876 15920 ft 337 kts 114°
2026-04-14 09:35 50.18473 7.37252 15540 ft 335 kts 111°
2026-04-14 09:35 50.17668 7.40655 15169 ft 333 kts 110°
2026-04-14 09:36 50.16895 7.44050 14802 ft 332 kts 110°
2026-04-14 09:36 50.16124 7.47434 14434 ft 330 kts 111°
2026-04-14 09:36 50.15348 7.50791 14077 ft 328 kts 111°
2026-04-14 09:36 50.14565 7.54119 13686 ft 326 kts 112°
2026-04-14 09:37 50.13775 7.57433 13283 ft 325 kts 112°
2026-04-14 09:37 50.12988 7.60708 12887 ft 323 kts 112°
2026-04-14 09:37 50.12201 7.63973 12505 ft 321 kts 112°
2026-04-14 09:37 50.11404 7.67213 12108 ft 318 kts 115°
2026-04-14 09:38 50.10320 7.70168 11723 ft 314 kts 127°
2026-04-14 09:38 50.09032 7.72923 11349 ft 312 kts 128°
2026-04-14 09:38 50.07764 7.75654 10965 ft 310 kts 127°
2026-04-14 09:38 50.06505 7.78372 10593 ft 309 kts 127°
2026-04-14 09:39 50.05250 7.81077 10232 ft 307 kts 127°
2026-04-14 09:39 50.04020 7.83729 9856 ft 305 kts 126°
2026-04-14 09:39 50.02764 7.86431 9443 ft 303 kts 126°
2026-04-14 09:39 50.01532 7.89071 9049 ft 301 kts 126°
2026-04-14 09:40 50.00310 7.91686 8660 ft 298 kts 126°
2026-04-14 09:40 49.99096 7.94282 8265 ft 295 kts 125°
2026-04-14 09:40 49.97910 7.96821 7887 ft 293 kts 125°
2026-04-14 09:40 49.96718 7.99367 7514 ft 290 kts 125°
2026-04-14 09:41 49.95539 8.01886 7184 ft 286 kts 124°
2026-04-14 09:41 49.94372 8.04412 6854 ft 281 kts 121°
2026-04-14 09:41 49.93752 8.07164 6545 ft 272 kts 90°
2026-04-14 09:41 49.94110 8.09956 6197 ft 262 kts 62°
2026-04-14 09:42 49.94912 8.12459 5850 ft 258 kts 64°
2026-04-14 09:42 49.95560 8.15039 5523 ft 255 kts 68°
2026-04-14 09:42 49.96135 8.17614 5217 ft 250 kts 69°
2026-04-14 09:42 49.96671 8.20109 5080 ft 239 kts 71°
2026-04-14 09:43 49.97185 8.22602 4397 ft 242 kts 69°
2026-04-14 09:43 49.97746 8.25015 3961 ft 233 kts 67°
2026-04-14 09:43 49.98303 8.27314 3619 ft 221 kts 66°
2026-04-14 09:43 49.98820 8.29450 3301 ft 202 kts 66°
2026-04-14 09:44 49.99302 8.31436 3044 ft 188 kts 67°
2026-04-14 09:44 49.99744 8.33263 2750 ft 173 kts 66°
2026-04-14 09:44 50.00150 8.34946 2499 ft 160 kts 66°
2026-04-14 09:44 50.00534 8.36533 2264 ft 154 kts 66°
2026-04-14 09:45 50.00899 8.38047 2064 ft 146 kts 66°
2026-04-14 09:45 50.01245 8.39491 1843 ft 140 kts 66°
2026-04-14 09:45 50.01586 8.40898 1622 ft 138 kts 66°
2026-04-14 09:45 50.01929 8.42287 1424 ft 138 kts 66°
2026-04-14 09:46 50.02269 8.43686 1197 ft 138 kts 65°
2026-04-14 09:46 50.02605 8.45088 1027 ft 137 kts 65°
2026-04-14 09:46 50.02937 8.46466 837 ft 135 kts 67°
2026-04-14 09:46 50.03261 8.47815 615 ft 133 kts 67°
2026-04-14 09:47 50.03580 8.49156 426 ft 131 kts 68°
2026-04-14 09:47 50.03890 8.50459 322 ft 117 kts 70°
2026-04-14 09:47 50.04107 8.51383 331 ft 67 kts 70°
2026-04-14 09:47 50.04245 8.51994 337 ft 54 kts 83°
2026-04-14 09:48 50.04224 8.52261 337 ft 17 kts 98°
2026-04-14 09:48 50.04210 8.52401 347 ft 11 kts 99°
2026-04-14 09:48 50.04201 8.52478 347 ft 7 kts 99°
2026-04-14 09:48 50.04196 8.52617 349 ft 18 kts 78°
2026-04-14 09:49 50.04241 8.52840 358 ft 23 kts 69°
2026-04-14 09:49 50.04296 8.53070 357 ft 23 kts 69°
2026-04-14 09:49 50.04346 8.53288 367 ft 21 kts 70°
2026-04-14 09:49 50.04394 8.53499 375 ft 19 kts 81°
2026-04-14 09:50 50.04410 8.53718 375 ft 23 kts 83°
2026-04-14 09:50 50.04426 8.53970 375 ft 24 kts 84°
2026-04-14 09:50 50.04443 8.54236 375 ft 25 kts 84°
2026-04-14 09:50 50.04444 8.54524 367 ft 29 kts 103°
2026-04-14 09:51 50.04332 8.54756 361 ft 26 kts 154°
2026-04-14 09:51 50.04149 8.54866 356 ft 18 kts 160°
2026-04-14 09:51 50.04078 8.54906 351 ft 3 kts 160°
2026-04-14 09:52 50.04077 8.54906 351 ft 1 kts 160°
2026-04-14 09:52 50.04028 8.54935 354 ft 14 kts 159°
2026-04-14 09:53 50.03912 8.55003 354 ft 20 kts 159°
2026-04-14 09:53 50.03855 8.55144 357 ft 18 kts 72°
2026-04-14 09:53 50.03901 8.55329 356 ft 19 kts 69°
2026-04-14 09:53 50.03948 8.55526 351 ft 21 kts 70°
2026-04-14 09:54 50.04000 8.55744 357 ft 22 kts 70°
2026-04-14 09:54 50.04054 8.55969 358 ft 22 kts 70°
2026-04-14 09:54 50.04109 8.56200 355 ft 23 kts 69°
2026-04-14 09:54 50.04167 8.56436 355 ft 23 kts 69°
2026-04-14 09:55 50.04221 8.56675 363 ft 23 kts 70°
2026-04-14 09:55 50.04277 8.56905 361 ft 23 kts 69°
2026-04-14 09:55 50.04334 8.57141 363 ft 23 kts 71°
2026-04-14 09:55 50.04390 8.57385 368 ft 24 kts 68°
2026-04-14 09:56 50.04450 8.57634 365 ft 24 kts 69°
2026-04-14 09:56 50.04509 8.57881 366 ft 25 kts 69°
2026-04-14 09:56 50.04585 8.58024 361 ft 18 kts 350°
2026-04-14 09:56 50.04720 8.57954 364 ft 22 kts 340°
2026-04-14 09:57 50.04849 8.57830 360 ft 23 kts 300°
2026-04-14 09:57 50.04917 8.57591 357 ft 26 kts 295°
2026-04-14 09:57 50.04934 8.57507 360 ft 3 kts 260°
2026-04-14 09:57 50.04896 8.57456 359 ft 5 kts 219°
2026-04-14 09:58 50.04884 8.57442 358 ft 0 kts 218°
2026-04-14 09:58 50.04883 8.57441 358 ft 0 kts 218°
2026-04-14 10:02 50.04883 8.57440 358 ft 0 kts 218°
2026-04-14 11:16 50.04883 8.57441 356 ft 0 kts 218°